QPF
0.07 0.09 0.09 0.08 0.07 0.06 0.06 0.09 0.13 0.15 0.19 0.20 0.24 0.22 0.14 0.10 0.07 0.06 0.07 0.05 0.05 0.04 0.04 0.04 0.04 0.04 0.04 0.05 0.04 0.04 0.05 0.04 0.04 0.05 0.06 0.06 0.06 0.06 0.07 0.07 0.07 0.05 0.05
0.07 0.08 0.08 0.08 0.07 0.06 0.08 0.10 0.10 0.13 0.15 0.16 0.21 0.23 0.17 0.11 0.07 0.06 0.06 0.05 0.04 0.03 0.03 0.04 0.05 0.05 0.04 0.06 0.05 0.05 0.05 0.06 0.04 0.04 0.05 0.06 0.07 0.09 0.11 0.10 0.08 0.06 0.05
0.07 0.07 0.07 0.08 0.07 0.08 0.10 0.11 0.10 0.09 0.10 0.11 0.14 0.17 0.17 0.13 0.08 0.07 0.07 0.07 0.06 0.04 0.03 0.03 0.05 0.05 0.05 0.06 0.08 0.07 0.06 0.06 0.06 0.05 0.07 0.07 0.07 0.08 0.10 0.10 0.08 0.07 0.07
0.05 0.07 0.07 0.08 0.09 0.10 0.12 0.12 0.10 0.08 0.09 0.08 0.09 0.11 0.11 0.10 0.08 0.08 0.09 0.07 0.06 0.05 0.05 0.04 0.03 0.04 0.05 0.07 0.08 0.08 0.08 0.08 0.06 0.04 0.05 0.05 0.04 0.05 0.05 0.05 0.06 0.08 0.08
0.04 0.06 0.07 0.09 0.11 0.11 0.11 0.10 0.11 0.09 0.10 0.08 0.07 0.08 0.08 0.08 0.09 0.10 0.08 0.06 0.06 0.05 0.07 0.06 0.04 0.04 0.06 0.08 0.08 0.07 0.07 0.07 0.06 0.04 0.04 0.03 0.03 0.03 0.04 0.05 0.08 0.10 0.07
0.04 0.07 0.09 0.10 0.10 0.11 0.12 0.12 0.13 0.11 0.11 0.09 0.07 0.09 0.09 0.07 0.06 0.06 0.05 0.06 0.07 0.06 0.07 0.05 0.05 0.04 0.07 0.10 0.08 0.09 0.08 0.07 0.06 0.05 0.04 0.05 0.04 0.03 0.03 0.03 0.05 0.06 0.04
0.06 0.09 0.08 0.12 0.10 0.11 0.12 0.11 0.12 0.12 0.11 0.10 0.11 0.12 0.11 0.08 0.06 0.05 0.05 0.06 0.06 0.07 0.08 0.07 0.07 0.08 0.12 0.18 0.12 0.06 0.06 0.07 0.07 0.06 0.07 0.09 0.07 0.05 0.04 0.03 0.02 0.02 0.03
0.05 0.08 0.11 0.10 0.10 0.11 0.11 0.11 0.12 0.11 0.09 0.09 0.11 0.12 0.11 0.11 0.10 0.07 0.05 0.05 0.05 0.07 0.08 0.07 0.10 0.13 0.15 0.15 0.12 0.07 0.05 0.06 0.06 0.06 0.06 0.06 0.05 0.04 0.04 0.04 0.03 0.03 0.02
0.03 0.06 0.09 0.09 0.09 0.10 0.11 0.11 0.10 0.10 0.11 0.11 0.10 0.10 0.10 0.11 0.10 0.08 0.06 0.06 0.08 0.10 0.10 0.10 0.11 0.13 0.13 0.10 0.10 0.07 0.06 0.05 0.04 0.05 0.04 0.04 0.04 0.03 0.03 0.03 0.03 0.03 0.03
0.01 0.03 0.06 0.07 0.08 0.09 0.10 0.08 0.08 0.08 0.10 0.10 0.11 0.09 0.08 0.10 0.09 0.08 0.09 0.09 0.10 0.10 0.10 0.10 0.11 0.16 0.15 0.10 0.08 0.04 0.03 0.03 0.03 0.05 0.05 0.05 0.05 0.05 0.04 0.04 0.04 0.05 0.05
0.02 0.02 0.05 0.07 0.09 0.09 0.09 0.09 0.10 0.07 0.07 0.08 0.10 0.09 0.10 0.10 0.10 0.10 0.11 0.12 0.13 0.11 0.09 0.10 0.14 0.14 0.10 0.09 0.07 0.04 0.03 0.02 0.02 0.03 0.04 0.03 0.04 0.05 0.06 0.06 0.07 0.07 0.06
0.03 0.02 0.04 0.08 0.10 0.11 0.10 0.09 0.08 0.08 0.07 0.07 0.07 0.08 0.09 0.10 0.11 0.12 0.13 0.11 0.10 0.09 0.09 0.09 0.10 0.13 0.12 0.09 0.06 0.05 0.05 0.04 0.05 0.07 0.06 0.03 0.04 0.05 0.05 0.06 0.08 0.10 0.07
0.04 0.04 0.06 0.08 0.10 0.11 0.09 0.08 0.07 0.06 0.07 0.06 0.06 0.06 0.06 0.08 0.10 0.12 0.12 0.11 0.09 0.08 0.11 0.10 0.09 0.10 0.10 0.06 0.05 0.07 0.07 0.07 0.07 0.08 0.08 0.06 0.04 0.04 0.04 0.05 0.06 0.08 0.07
0.05 0.05 0.04 0.05 0.08 0.10 0.09 0.09 0.06 0.06 0.07 0.06 0.05 0.07 0.06 0.06 0.08 0.10 0.12 0.10 0.08 0.08 0.09 0.08 0.05 0.04 0.03 0.02 0.03 0.06 0.05 0.07 0.07 0.07 0.05 0.03 0.02 0.03 0.04 0.04 0.04 0.06 0.07
0.04 0.03 0.03 0.04 0.06 0.08 0.10 0.11 0.08 0.07 0.07 0.05 0.05 0.06 0.06 0.06 0.07 0.07 0.08 0.09 0.09 0.08 0.08 0.06 0.04 0.02 0.02 0.03 0.02 0.02 0.02 0.03 0.04 0.05 0.06 0.05 0.04 0.03 0.04 0.04 0.04 0.03 0.04
0.02 0.04 0.04 0.04 0.04 0.04 0.05 0.07 0.06 0.05 0.06 0.06 0.06 0.06 0.07 0.05 0.07 0.08 0.08 0.09 0.10 0.09 0.07 0.03 0.03 0.02 0.03 0.06 0.03 0.02 0.02 0.03 0.03 0.03 0.05 0.08 0.07 0.04 0.04 0.03 0.03 0.02 0.02
0.02 0.03 0.04 0.03 0.03 0.02 0.03 0.04 0.03 0.05 0.04 0.04 0.05 0.05 0.05 0.06 0.07 0.07 0.09 0.09 0.10 0.11 0.07 0.04 0.03 0.03 0.04 0.05 0.05 0.05 0.04 0.04 0.03 0.02 0.03 0.07 0.07 0.04 0.03 0.03 0.03 0.03 0.04
0.02 0.03 0.03 0.03 0.03 0.03 0.04 0.03 0.02 0.04 0.03 0.03 0.04 0.05 0.05 0.07 0.08 0.07 0.08 0.08 0.09 0.10 0.08 0.05 0.05 0.05 0.07 0.07 0.07 0.06 0.04 0.04 0.03 0.03 0.02 0.02 0.03 0.03 0.02 0.02 0.01 0.01 0.01
0.03 0.03 0.03 0.03 0.03 0.03 0.04 0.03 0.03 0.04 0.03 0.03 0.04 0.05 0.06 0.08 0.07 0.07 0.08 0.08 0.08 0.08 0.08 0.06 0.04 0.06 0.06 0.04 0.05 0.04 0.04 0.04 0.02 0.03 0.03 0.03 0.03 0.02 0.02 0.01 0.01 0.01 0.01
0.02 0.02 0.02 0.02 0.02 0.02 0.02 0.02 0.03 0.04 0.04 0.03 0.04 0.05 0.05 0.07 0.09 0.09 0.08 0.08 0.08 0.09 0.08 0.07 0.05 0.06 0.05 0.04 0.05 0.04 0.05 0.05 0.03 0.03 0.04 0.03 0.03 0.03 0.02 0.01 0.01 0.01 0.02
0.01 0.02 0.02 0.01 0.01 0.01 0.01 0.01 0.02 0.02 0.03 0.02 0.03 0.04 0.04 0.04 0.05 0.06 0.06 0.07 0.06 0.07 0.08 0.07 0.06 0.06 0.06 0.07 0.06 0.06 0.06 0.06 0.05 0.05 0.05 0.03 0.03 0.03 0.02 0.01 0.01 0.02 0.02
0.02 0.03 0.01 0.01 0.01 0.00 0.00 0.00 0.00 0.01 0.02 0.02 0.03 0.03 0.02 0.01 0.02 0.02 0.03 0.04 0.04 0.04 0.05 0.06 0.06 0.06 0.06 0.06 0.07 0.08 0.08 0.07 0.06 0.06 0.06 0.04 0.04 0.04 0.04 0.03 0.03 0.03 0.02
0.03 0.03 0.02 0.02 0.01 0.01 0.00 0.00 0.00 0.01 0.01 0.01 0.02 0.02 0.01 0.01 0.01 0.01 0.01 0.01 0.01 0.01 0.02 0.04 0.04 0.04 0.05 0.06 0.08 0.07 0.08 0.07 0.06 0.05 0.06 0.04 0.03 0.03 0.04 0.05 0.05 0.04 0.03
0.03 0.03 0.03 0.02 0.02 0.01 0.00 0.01 0.01 0.00 0.01 0.01 0.01 0.02 0.02 0.02 0.01 0.01 0.01 0.01 0.01 0.01 0.02 0.02 0.03 0.03 0.04 0.06 0.06 0.07 0.09 0.09 0.08 0.07 0.07 0.06 0.04 0.03 0.03 0.04 0.06 0.05 0.04
0.03 0.03 0.03 0.03 0.02 0.02 0.01 0.01 0.02 0.01 0.01 0.01 0.01 0.01 0.01 0.02 0.01 0.01 0.01 0.02 0.02 0.02 0.02 0.02 0.02 0.03 0.04 0.05 0.06 0.05 0.07 0.08 0.06 0.05 0.06 0.05 0.04 0.06 0.05 0.04 0.07 0.08 0.06
0.03 0.04 0.04 0.03 0.03 0.02 0.01 0.01 0.01 0.02 0.01 0.01 0.01 0.02 0.01 0.01 0.01 0.00 0.02 0.03 0.02 0.02 0.03 0.03 0.02 0.03 0.03 0.04 0.05 0.05 0.06 0.07 0.06 0.06 0.05 0.06 0.05 0.07 0.08 0.07 0.07 0.10 0.11
MSLP
1015.25 1015.69 1016.06 1016.36 1016.63 1016.86 1017.06 1017.21 1017.30 1017.32 1017.26 1017.15 1017.02 1016.91 1016.88 1016.95 1017.16 1017.50 1017.94 1018.41 1018.88 1019.30 1019.62 1019.85 1019.99 1020.06 1020.10 1020.14 1020.19 1020.28 1020.41 1020.55 1020.70 1020.85 1020.98 1021.11 1021.22 1021.33 1021.43 1021.53 1021.62 1021.70 1021.76
1015.30 1015.75 1016.12 1016.43 1016.70 1016.93 1017.12 1017.26 1017.35 1017.38 1017.33 1017.23 1017.09 1016.97 1016.89 1016.91 1017.03 1017.28 1017.62 1018.03 1018.46 1018.87 1019.23 1019.51 1019.72 1019.86 1019.96 1020.03 1020.10 1020.18 1020.27 1020.38 1020.49 1020.61 1020.73 1020.85 1020.97 1021.08 1021.19 1021.29 1021.38 1021.46 1021.52
1015.37 1015.82 1016.19 1016.51 1016.78 1017.01 1017.21 1017.36 1017.46 1017.50 1017.46 1017.37 1017.23 1017.08 1016.96 1016.89 1016.91 1017.04 1017.26 1017.57 1017.92 1018.29 1018.65 1018.97 1019.23 1019.44 1019.61 1019.73 1019.83 1019.91 1019.99 1020.08 1020.17 1020.27 1020.38 1020.49 1020.62 1020.74 1020.86 1020.98 1021.08 1021.17 1021.24
1015.49 1015.91 1016.28 1016.60 1016.87 1017.11 1017.32 1017.48 1017.60 1017.65 1017.64 1017.56 1017.43 1017.26 1017.08 1016.94 1016.84 1016.83 1016.92 1017.09 1017.33 1017.62 1017.94 1018.26 1018.56 1018.82 1019.04 1019.22 1019.35 1019.46 1019.54 1019.62 1019.71 1019.81 1019.91 1020.04 1020.17 1020.31 1020.45 1020.58 1020.70 1020.80 1020.89
1015.65 1016.03 1016.38 1016.69 1016.97 1017.21 1017.42 1017.60 1017.73 1017.81 1017.83 1017.78 1017.66 1017.49 1017.28 1017.06 1016.87 1016.73 1016.66 1016.68 1016.78 1016.97 1017.21 1017.49 1017.78 1018.06 1018.31 1018.52 1018.70 1018.84 1018.95 1019.05 1019.15 1019.26 1019.38 1019.51 1019.66 1019.82 1019.97 1020.11 1020.23 1020.35 1020.45
1015.83 1016.16 1016.48 1016.77 1017.04 1017.28 1017.50 1017.69 1017.84 1017.95 1018.00 1017.98 1017.90 1017.75 1017.53 1017.28 1017.01 1016.76 1016.56 1016.43 1016.38 1016.42 1016.55 1016.74 1016.98 1017.24 1017.49 1017.73 1017.93 1018.11 1018.26 1018.39 1018.52 1018.65 1018.80 1018.95 1019.11 1019.26 1019.41 1019.55 1019.67 1019.78 1019.89
1016.00 1016.27 1016.54 1016.81 1017.07 1017.31 1017.52 1017.71 1017.88 1018.02 1018.11 1018.14 1018.11 1018.01 1017.82 1017.58 1017.27 1016.95 1016.64 1016.38 1016.18 1016.07 1016.05 1016.12 1016.27 1016.46 1016.69 1016.92 1017.14 1017.35 1017.54 1017.71 1017.88 1018.05 1018.21 1018.38 1018.54 1018.68 1018.81 1018.92 1019.02 1019.11 1019.19
1016.10 1016.32 1016.55 1016.80 1017.04 1017.27 1017.48 1017.67 1017.85 1018.00 1018.14 1018.23 1018.26 1018.23 1018.11 1017.90 1017.61 1017.26 1016.88 1016.51 1016.18 1015.92 1015.75 1015.68 1015.70 1015.81 1015.97 1016.17 1016.39 1016.62 1016.85 1017.06 1017.27 1017.47 1017.65 1017.82 1017.96 1018.08 1018.17 1018.24 1018.28 1018.33 1018.38
1016.09 1016.27 1016.49 1016.71 1016.94 1017.15 1017.35 1017.54 1017.71 1017.89 1018.05 1018.20 1018.30 1018.35 1018.32 1018.18 1017.95 1017.62 1017.22 1016.78 1016.35 1015.96 1015.65 1015.43 1015.32 1015.31 1015.39 1015.54 1015.74 1015.97 1016.22 1016.47 1016.71 1016.93 1017.13 1017.29 1017.40 1017.48 1017.52 1017.52 1017.51 1017.50 1017.51
1015.96 1016.12 1016.32 1016.54 1016.76 1016.96 1017.15 1017.32 1017.49 1017.66 1017.84 1018.03 1018.20 1018.33 1018.38 1018.34 1018.19 1017.91 1017.53 1017.08 1016.59 1016.11 1015.68 1015.33 1015.09 1014.97 1014.95 1015.04 1015.20 1015.42 1015.67 1015.93 1016.19 1016.43 1016.62 1016.77 1016.86 1016.89 1016.87 1016.82 1016.74 1016.68 1016.64
1015.70 1015.85 1016.05 1016.27 1016.49 1016.69 1016.86 1017.01 1017.16 1017.32 1017.50 1017.70 1017.92 1018.11 1018.26 1018.31 1018.25 1018.06 1017.73 1017.30 1016.79 1016.26 1015.75 1015.30 1014.96 1014.73 1014.62 1014.63 1014.74 1014.93 1015.17 1015.44 1015.70 1015.94 1016.13 1016.26 1016.32 1016.31 1016.26 1016.16 1016.05 1015.95 1015.88
1015.33 1015.48 1015.69 1015.92 1016.14 1016.34 1016.50 1016.62 1016.74 1016.87 1017.03 1017.23 1017.46 1017.70 1017.91 1018.05 1018.08 1017.97 1017.72 1017.35 1016.87 1016.33 1015.78 1015.28 1014.85 1014.54 1014.35 1014.29 1014.35 1014.50 1014.71 1014.96 1015.21 1015.44 1015.62 1015.74 1015.78 1015.77 1015.69 1015.58 1015.46 1015.35 1015.28
1014.87 1015.03 1015.24 1015.48 1015.71 1015.90 1016.06 1016.17 1016.25 1016.35 1016.47 1016.64 1016.86 1017.11 1017.35 1017.55 1017.66 1017.64 1017.48 1017.18 1016.76 1016.26 1015.72 1015.19 1014.73 1014.36 1014.11 1013.99 1013.99 1014.09 1014.26 1014.48 1014.70 1014.92 1015.09 1015.20 1015.25 1015.25 1015.19 1015.10 1015.01 1014.93 1014.88
1014.36 1014.51 1014.73 1014.97 1015.21 1015.41 1015.56 1015.66 1015.72 1015.77 1015.85 1015.98 1016.16 1016.39 1016.64 1016.87 1017.03 1017.09 1017.02 1016.80 1016.46 1016.02 1015.53 1015.02 1014.55 1014.16 1013.87 1013.70 1013.64 1013.69 1013.81 1013.99 1014.18 1014.37 1014.54 1014.66 1014.73 1014.75 1014.74 1014.71 1014.68 1014.66 1014.66
1013.80 1013.94 1014.16 1014.42 1014.67 1014.88 1015.03 1015.12 1015.16 1015.18 1015.22 1015.29 1015.43 1015.62 1015.85 1016.08 1016.28 1016.39 1016.39 1016.27 1016.02 1015.66 1015.23 1014.78 1014.33 1013.94 1013.63 1013.43 1013.32 1013.31 1013.38 1013.51 1013.66 1013.82 1013.98 1014.10 1014.20 1014.27 1014.32 1014.37 1014.42 1014.48 1014.55
1013.22 1013.35 1013.57 1013.83 1014.10 1014.33 1014.49 1014.59 1014.62 1014.62 1014.61 1014.64 1014.72 1014.86 1015.05 1015.27 1015.48 1015.63 1015.69 1015.64 1015.48 1015.22 1014.87 1014.48 1014.08 1013.71 1013.40 1013.17 1013.03 1012.97 1012.98 1013.05 1013.16 1013.29 1013.42 1013.55 1013.67 1013.79 1013.90 1014.02 1014.16 1014.30 1014.44
1012.64 1012.76 1012.97 1013.24 1013.52 1013.77 1013.96 1014.07 1014.11 1014.10 1014.07 1014.05 1014.08 1014.17 1014.32 1014.51 1014.70 1014.87 1014.98 1014.99 1014.91 1014.73 1014.47 1014.15 1013.81 1013.47 1013.18 1012.94 1012.77 1012.67 1012.63 1012.64 1012.70 1012.78 1012.88 1013.00 1013.13 1013.27 1013.43 1013.61 1013.81 1014.02 1014.22
1012.05 1012.18 1012.39 1012.67 1012.96 1013.23 1013.45 1013.58 1013.63 1013.62 1013.58 1013.54 1013.53 1013.57 1013.67 1013.82 1013.99 1014.16 1014.29 1014.35 1014.33 1014.22 1014.04 1013.79 1013.51 1013.22 1012.95 1012.71 1012.52 1012.39 1012.31 1012.27 1012.27 1012.30 1012.36 1012.45 1012.56 1012.70 1012.88 1013.08 1013.32 1013.56 1013.80
1011.48 1011.62 1011.84 1012.12 1012.42 1012.71 1012.94 1013.10 1013.17 1013.16 1013.11 1013.06 1013.02 1013.02 1013.08 1013.20 1013.34 1013.50 1013.64 1013.72 1013.75 1013.69 1013.57 1013.38 1013.16 1012.92 1012.67 1012.45 1012.26 1012.10 1011.99 1011.90 1011.85 1011.83 1011.84 1011.87 1011.95 1012.06 1012.22 1012.42 1012.65 1012.90 1013.16
1010.95 1011.10 1011.33 1011.61 1011.91 1012.20 1012.43 1012.60 1012.68 1012.68 1012.64 1012.57 1012.51 1012.49 1012.52 1012.60 1012.72 1012.86 1012.99 1013.08 1013.13 1013.12 1013.04 1012.90 1012.73 1012.52 1012.31 1012.11 1011.93 1011.76 1011.62 1011.50 1011.41 1011.34 1011.28 1011.26 1011.28 1011.34 1011.45 1011.61 1011.81 1012.06 1012.31
1010.48 1010.64 1010.87 1011.13 1011.42 1011.68 1011.91 1012.06 1012.14 1012.14 1012.10 1012.03 1011.97 1011.93 1011.94 1011.99 1012.08 1012.20 1012.31 1012.41 1012.46 1012.46 1012.41 1012.31 1012.17 1012.00 1011.82 1011.64 1011.47 1011.31 1011.16 1011.02 1010.89 1010.78 1010.67 1010.59 1010.54 1010.54 1010.58 1010.69 1010.86 1011.07 1011.32
1010.10 1010.26 1010.47 1010.70 1010.94 1011.17 1011.36 1011.48 1011.54 1011.54 1011.49 1011.42 1011.35 1011.31 1011.30 1011.34 1011.41 1011.50 1011.60 1011.67 1011.72 1011.72 1011.67 1011.59 1011.47 1011.32 1011.17 1011.01 1010.86 1010.71 1010.56 1010.41 1010.26 1010.12 1009.97 1009.84 1009.74 1009.67 1009.66 1009.72 1009.84 1010.03 1010.26
1009.82 1009.97 1010.13 1010.31 1010.50 1010.66 1010.80 1010.88 1010.91 1010.89 1010.83 1010.76 1010.70 1010.65 1010.64 1010.66 1010.72 1010.78 1010.85 1010.90 1010.92 1010.90 1010.85 1010.75 1010.63 1010.50 1010.35 1010.21 1010.07 1009.93 1009.79 1009.65 1009.50 1009.33 1009.17 1009.01 1008.87 1008.77 1008.72 1008.74 1008.83 1009.00 1009.23
1009.65 1009.76 1009.87 1009.99 1010.10 1010.19 1010.26 1010.30 1010.29 1010.25 1010.18 1010.11 1010.05 1010.01 1010.00 1010.01 1010.04 1010.08 1010.11 1010.13 1010.11 1010.05 1009.96 1009.84 1009.70 1009.55 1009.40 1009.26 1009.12 1008.99 1008.86 1008.73 1008.58 1008.42 1008.26 1008.10 1007.95 1007.83 1007.77 1007.78 1007.87 1008.04 1008.28
1009.56 1009.62 1009.67 1009.72 1009.77 1009.79 1009.80 1009.79 1009.75 1009.69 1009.62 1009.55 1009.49 1009.46 1009.44 1009.44 1009.45 1009.45 1009.44 1009.40 1009.33 1009.22 1009.08 1008.91 1008.72 1008.54 1008.36 1008.20 1008.05 1007.92 1007.79 1007.67 1007.54 1007.40 1007.26 1007.11 1006.98 1006.89 1006.84 1006.86 1006.96 1007.14 1007.41
1009.51 1009.53 1009.53 1009.52 1009.51 1009.49 1009.46 1009.42 1009.36 1009.29 1009.21 1009.15 1009.09 1009.05 1009.02 1009.00 1008.97 1008.93 1008.87 1008.77 1008.63 1008.45 1008.23 1007.99 1007.75 1007.51 1007.28 1007.09 1006.91 1006.77 1006.64 1006.53 1006.42 1006.31 1006.20 1006.09 1006.00 1005.94 1005.92 1005.96 1006.09 1006.29 1006.57
Thickness
5787 5785 5784 5783 5782 5780 5778 5776 5775 5774 5772 5771 5770 5770 5769 5769 5768 5765 5762 5759 5757 5755 5754 5752 5750 5748 5747 5746 5744 5742 5741 5740 5738 5737 5736 5735 5734 5732 5731 5730 5728 5727 5725
5787 5786 5784 5783 5782 5781 5779 5777 5776 5774 5772 5772 5771 5770 5769 5768 5767 5765 5762 5759 5757 5756 5754 5752 5751 5749 5748 5747 5745 5743 5742 5740 5739 5738 5737 5735 5734 5733 5731 5730 5728 5727 5726
5787 5786 5784 5783 5782 5781 5780 5778 5776 5775 5772 5772 5770 5771 5770 5769 5768 5766 5763 5761 5758 5756 5754 5752 5751 5750 5749 5747 5746 5744 5743 5741 5740 5739 5737 5735 5734 5733 5732 5730 5729 5727 5726
5788 5787 5785 5783 5783 5781 5779 5777 5776 5773 5771 5770 5769 5770 5770 5769 5768 5766 5764 5762 5760 5758 5755 5753 5751 5750 5749 5748 5746 5745 5744 5743 5741 5740 5737 5736 5735 5733 5732 5731 5729 5728 5726
5789 5787 5785 5783 5783 5781 5779 5778 5775 5772 5769 5768 5768 5769 5769 5769 5768 5766 5765 5764 5762 5760 5757 5754 5752 5751 5749 5748 5747 5746 5745 5743 5742 5741 5738 5736 5735 5733 5732 5730 5729 5728 5726
5789 5787 5785 5783 5782 5780 5778 5776 5773 5772 5770 5768 5769 5768 5769 5770 5769 5767 5766 5766 5764 5761 5758 5756 5753 5751 5750 5748 5747 5747 5746 5744 5743 5741 5739 5737 5736 5734 5732 5730 5729 5728 5727
5789 5787 5785 5783 5781 5779 5776 5775 5772 5769 5768 5769 5765 5762 5765 5770 5769 5768 5767 5765 5764 5762 5760 5758 5754 5753 5751 5748 5746 5746 5745 5744 5743 5741 5740 5738 5737 5735 5733 5732 5730 5728 5727
5789 5788 5784 5782 5780 5778 5776 5774 5772 5768 5767 5769 5763 5757 5753 5757 5763 5768 5766 5764 5763 5761 5759 5758 5756 5754 5752 5749 5746 5745 5744 5744 5743 5741 5740 5739 5737 5736 5735 5733 5731 5729 5728
5789 5787 5785 5782 5780 5778 5775 5773 5772 5768 5764 5767 5767 5759 5750 5746 5752 5760 5762 5762 5761 5759 5757 5757 5755 5753 5751 5749 5747 5745 5744 5743 5742 5741 5740 5739 5738 5736 5735 5733 5732 5730 5728
5788 5786 5784 5782 5779 5778 5775 5774 5773 5771 5767 5763 5764 5765 5762 5758 5749 5747 5754 5758 5759 5757 5755 5755 5755 5753 5749 5748 5746 5745 5744 5742 5741 5740 5739 5738 5737 5736 5734 5732 5731 5730 5728
5788 5786 5784 5781 5779 5777 5775 5774 5772 5770 5768 5764 5762 5762 5761 5759 5757 5748 5744 5749 5752 5754 5755 5755 5754 5751 5749 5747 5745 5744 5743 5741 5740 5739 5738 5737 5736 5735 5733 5732 5730 5729 5728
5787 5786 5784 5781 5779 5777 5775 5773 5771 5769 5767 5765 5764 5762 5759 5755 5753 5750 5746 5745 5746 5750 5754 5754 5752 5750 5748 5746 5743 5743 5741 5739 5738 5735 5735 5734 5733 5732 5732 5730 5729 5728 5727
5784 5783 5783 5781 5779 5777 5775 5773 5770 5768 5767 5764 5762 5761 5760 5758 5758 5754 5749 5746 5745 5747 5749 5750 5750 5749 5747 5744 5742 5741 5739 5737 5735 5733 5732 5731 5730 5730 5729 5728 5726 5725 5725
5785 5785 5783 5780 5778 5776 5775 5772 5769 5767 5766 5763 5762 5760 5759 5759 5758 5756 5751 5745 5740 5740 5742 5744 5747 5747 5745 5743 5742 5740 5738 5736 5733 5731 5730 5728 5727 5726 5726 5725 5723 5722 5721
5786 5785 5782 5779 5777 5775 5773 5770 5767 5765 5764 5761 5760 5758 5756 5757 5757 5756 5754 5750 5741 5732 5733 5739 5741 5745 5744 5741 5740 5737 5735 5733 5731 5729 5727 5726 5724 5724 5722 5721 5720 5719 5718
5784 5782 5780 5778 5776 5773 5771 5767 5765 5763 5760 5758 5756 5754 5753 5753 5753 5753 5752 5750 5746 5739 5733 5737 5739 5741 5740 5739 5737 5735 5733 5731 5728 5727 5725 5723 5722 5721 5720 5718 5717 5716 5714
5782 5779 5777 5775 5773 5770 5768 5765 5763 5761 5758 5756 5754 5753 5751 5751 5749 5748 5747 5746 5743 5740 5732 5734 5737 5738 5737 5734 5733 5732 5730 5728 5725 5724 5722 5720 5718 5717 5716 5715 5714 5713 5711
5780 5777 5775 5772 5770 5768 5765 5763 5760 5758 5756 5753 5752 5750 5748 5748 5746 5744 5742 5741 5739 5738 5733 5728 5730 5731 5731 5731 5729 5728 5728 5727 5724 5722 5719 5717 5715 5713 5711 5710 5709 5708 5707
5777 5775 5772 5769 5767 5765 5762 5760 5758 5756 5754 5752 5750 5748 5746 5744 5741 5740 5738 5736 5736 5736 5732 5728 5726 5727 5727 5727 5724 5724 5724 5723 5721 5719 5716 5714 5711 5709 5708 5706 5704 5703 5702
5774 5772 5769 5767 5764 5762 5759 5757 5755 5753 5751 5750 5748 5746 5744 5741 5738 5736 5734 5732 5731 5729 5727 5724 5722 5721 5721 5722 5719 5717 5716 5717 5716 5716 5713 5711 5708 5706 5704 5702 5700 5699 5697
5773 5769 5766 5764 5762 5759 5756 5753 5750 5749 5747 5746 5744 5743 5741 5738 5736 5733 5731 5728 5726 5724 5722 5719 5717 5716 5714 5713 5711 5712 5710 5710 5711 5711 5708 5706 5705 5702 5700 5698 5696 5695 5694
5770 5766 5763 5760 5757 5756 5751 5748 5745 5744 5743 5741 5739 5738 5736 5734 5732 5730 5727 5725 5723 5719 5716 5714 5712 5710 5709 5709 5709 5708 5705 5702 5700 5706 5703 5701 5702 5699 5697 5695 5694 5692 5690
5765 5762 5760 5757 5753 5750 5746 5744 5741 5739 5738 5737 5735 5733 5733 5733 5729 5726 5723 5722 5719 5717 5714 5711 5708 5707 5706 5707 5705 5702 5701 5698 5697 5700 5698 5695 5697 5694 5695 5694 5692 5689 5687
5760 5757 5755 5753 5749 5746 5742 5739 5736 5735 5734 5733 5731 5730 5727 5726 5725 5720 5718 5716 5715 5713 5711 5708 5707 5707 5706 5705 5703 5701 5699 5697 5697 5697 5695 5689 5691 5690 5691 5689 5688 5686 5683
5756 5753 5751 5749 5745 5741 5737 5734 5731 5730 5729 5728 5728 5727 5724 5721 5718 5715 5712 5710 5708 5708 5707 5706 5705 5703 5702 5701 5699 5696 5693 5690 5688 5690 5692 5687 5686 5685 5685 5684 5683 5681 5679
5752 5749 5747 5745 5741 5738 5732 5729 5726 5725 5724 5723 5723 5722 5719 5716 5713 5710 5707 5704 5701 5701 5701 5700 5698 5698 5697 5696 5695 5692 5689 5686 5684 5683 5687 5684 5682 5680 5676 5678 5677 5675 5672